www.pogodaiklimat.ru

Погода и климат >> Архив погоды >> Кувейт >> Al-Salmi


ПОГОДА в Al-Salmi

  • Прогноз погоды в Al-Salmi
  • Монитор погоды в Al-Salmi
  • Климат города

АРХИВ ПОГОДЫ в Al-Salmi

Время (UTC), дата Ветер
(напр.,м/с)
 
Видим.   Явления Облачность Т
(С)
Тd
(С)
f
(%)
Тe
(С)
Тes
(С)
Комфортность P
(гПа)
Po
(гПа)
Тmin
(С)
Tmax
(С)
R
(мм)
R24
(мм)
S
(см)
18 12.07 СЗ 5-7
{17}
8000 м дым н/о +37.6 +2.2 11 +34 +34 очень
жарко
996.5 997.0
21 12.07 СЗ 8 19 км н/о +35.0 +4.5 15 +32 +32 жарко 996.2 996.0 +32.7 +46.9
00 13.07 СЗ 10-14
{14}
19 км н/о +34.0 +5.5 17 +32 +32 жарко 995.4 995.0
03 13.07 С 10-13
{17}
20 км н/о +34.4 +2.5 13 +31 +31 жарко 995.9 996.0
06 13.07 С 11-15
{17}
18 км н/о +40.0 +7.6 14 +38 +38 очень
жарко
996.0 996.0
09 13.07 С 11-16
{17}
16 км н/о +43.8 +7.9 12 +42 +42 опасность
перегрева
995.5 996.0
12 13.07 СЗ 10-14
{17}
17 км н/о +44.6 +7.2 11 +42 +42 опасность
перегрева
994.7 995.0
15 13.07 СЗ 10-13
{16}
14 км н/о +42.8 +3.1 9 +40 +40 очень
жарко
994.6 995.0
18 13.07 С 4-5
{16}
19 км н/о +36.7 +3.1 12 +33 +33 жарко 996.8 997.0
21 13.07 С 5 19 км н/о +34.2 +4.2 15 +31 +31 жарко 996.5 997.0 +33.0 +45.4
00 14.07 С 3-4
{8}
20 км н/о +30.4 +4.6 20 +29 +29 жарко 996.0 996.0
03 14.07 З 4-6
{6}
20 км н/о +29.2 +4.1 20 +27 +27 жарко 997.1 997.0
06 14.07 СЗ 7-9
{12}
20 км н/о +38.7 +8.2 16 +37 +37 очень
жарко
997.1 997.0
09 14.07 СЗ 6-11
{13}
19 км н/о +43.7 +7.3 11 +41 +41 опасность
перегрева
996.0 996.0
12 14.07 З 7-11
{13}
19 км н/о +45.3 +5.3 9 +42 +42 опасность
перегрева
995.0 995.0
15 14.07 СЗ 7-9
{12}
20 км н/о +43.3 +0.1 7 +40 +40 очень
жарко
994.9 995.0
18 14.07 СЗ 3-4
{12}
20 км н/о +36.3 -1.0 9 +32 +32 жарко 996.6 997.0
21 14.07 С 4 20 км н/о +33.5 -1.0 11 +30 +30 жарко 996.6 997.0 +28.5 +45.8
00 15.07 З 2-2
{5}
20 км н/о +31.1 -0.8 13 +28 +28 жарко 996.8 997.0
03 15.07 З 4-5
{9}
20 км н/о +30.2 +0.4 15 +27 +27 жарко 998.2 998.0
06 15.07 СЗ 4-7
{9}
19 км н/о +38.3 +6.4 14 +36 +36 очень
жарко
998.0 998.0
09 15.07 З 4-7
{8}
20 км н/о +42.7 +6.6 11 +40 +40 очень
жарко
996.9 997.0
12 15.07 З 6-9
{14}
19 км н/о +44.0 +7.6 11 +42 +42 опасность
перегрева
995.3 995.0
15 15.07 З 6-8
{12}
19 км н/о +42.6 +4.1 10 +40 +40 очень
жарко
994.9 995.0
18 15.07 СЗ 4-4
{12}
19 км н/о +36.9 +1.8 11 +33 +33 жарко 996.7 997.0
21 15.07 С 4 18 км н/о +34.6 +4.6 15 +32 +32 жарко 996.2 996.0 +28.7 +44.5
00 16.07 С 6-8
{9}
20 км н/о +34.1 +3.0 14 +31 +31 жарко 996.0 996.0
03 16.07 С 5-7
{10}
19 км н/о +32.6 +2.0 14 +30 +30 жарко 997.3 997.0
06 16.07 СЗ 9-12
{12}
18 км н/о +39.2 +6.5 14 +37 +37 очень
жарко
997.1 997.0
09 16.07 СЗ 6-10
{12}
19 км н/о +42.4 +6.9 12 +40 +40 очень
жарко
996.3 996.0
12 16.07 З 9-15
{15}
17 км н/о +43.0 +6.4 11 +40 +40 очень
жарко
995.3 995.0
15 16.07 СЗ 9-11
{15}
15 км н/о +41.2 +2.8 9 +38 +38 очень
жарко
995.4 995.0
18 16.07 С 7-10
{15}
18 км н/о +37.3 +3.6 12 +34 +34 очень
жарко
997.0 997.0
21 16.07 СЗ 5 20 км н/о +33.9 +4.9 16 +31 +31 жарко 997.3 997.0 +32.5 +44.4
00 17.07 ЮЗ 4-5
{8}
20 км н/о +32.3 +5.8 19 +30 +30 жарко 996.7 997.0
03 17.07 З 5-7
{7}
20 км н/о +30.0 +4.4 20 +28 +28 жарко 997.8 998.0
06 17.07 С 11-15
{15}
6000 м дымка н/о +37.7 +8.9 17 +36 +36 очень
жарко
997.8 998.0
09 17.07 СЗ 9-15
{16}
13 км н/о +40.5 +9.7 16 +39 +39 очень
жарко
997.1 997.0
12 17.07 СЗ 10-13
{17}
3700 м дым н/о +41.3 +6.2 12 +39 +39 очень
жарко
996.0 996.0
15 17.07 СЗ 10-13
{16}
3900 м дым н/о +39.5 +3.3 11 +36 +36 очень
жарко
995.9 996.0
18 17.07 СЗ 4-5
{16}
5000 м дым н/о +35.5 +4.5 15 +33 +33 жарко 997.2 997.0
21 17.07 З 5 16 км н/о +32.4 +4.0 17 +30 +30 жарко 997.4 997.0 +29.5 +42.1
00 18.07 З 4-6
{6}
18 км н/о +29.4 +3.3 19 +27 +27 жарко 997.3 997.0
03 18.07 СЗ 4-6
{9}
9000 м дымка н/о +29.1 +2.0 18 +27 +27 жарко 998.6 999.0
06 18.07 СЗ 8-11
{11}
10 км дымка н/о +36.7 +6.6 16 +34 +34 очень
жарко
998.3 998.0
09 18.07 З 10-17
{17}
9000 м дым н/о +39.9 +7.3 14 +38 +38 очень
жарко
997.3 997.0
12 18.07 СЗ 8-12
{17}
10 км н/о +40.7 +5.5 12 +38 +38 очень
жарко
996.1 996.0
18 18.07 З 3-5
{14}
15 км н/о +35.0 +0.6 11 +31 +31 жарко 997.6 998.0
21 18.07 ЮЗ 4 4400 м дым н/о +34.6 +3.0 14 +32 +32 жарко 997.6 998.0 +28.3 +41.8
00 19.07 ЮЗ 5-6
{7}
12 км н/о +31.2 +3.0 17 +29 +29 жарко 997.3 997.0
03 19.07 З 4-6
{7}
19 км н/о +29.3 +3.0 19 +27 +27 жарко 998.5 999.0
06 19.07 СЗ 5-7
{9}
18 км н/о +36.4 +7.3 17 +34 +34 очень
жарко
998.4 998.0
09 19.07 С 4-8
{10}
17 км н/о +41.8 +7.9 13 +40 +40 очень
жарко
997.1 997.0
12 19.07 С 6-9
{10}
16 км н/о +43.1 +6.2 11 +40 +40 очень
жарко
995.9 996.0

 

Местоположение метеостанции Al-Salmi (Кувейт): широта 29.10 долгота 46.68 высота над уровнем моря 287 м.

В архиве по умолчанию представлена погода в Al-Salmi за последнюю неделю. Архивные данные за месяц целиком и за предыдущие месяцы, начиная с января 2011 года, Вы можете получить, выбрав интересующий диапазон дат из раскрывающегося списка и нажав кнопку "Ввод!".


*Определитесь, кто Вы:
робот инопланетянин человек

Внимание! Время в таблицах - всемирное. Для получения местного времени необходимо прибавить поправку, которая в Al-Salmi равна 3 ч.

Смотрите также архив погоды в соседних городах и на ближайших метеорологических станциях:

Погода в Abraque Al Habari (Кувейт) (38 км)
Погода в Minagish (Кувейт) (83 км)
Погода в Jahra (Кувейт) (99 км)
Погода в Al Qaisumah (Саудовская Аравия) (102 км)
Погода в Sulaibiya (Кувейт) (103 км)
Погода в Jal Aliyah (Кувейт) (104 км)
Погода в Mitribah (Кувейт) (104 км)
Погода в Experimental Farm (Кувейт) (124 км)
Погода в Kuwait (Кувейт) (126 км)
Погода в Sabriyah (Кувейт) (134 км)

Пояснения к столбцам:

Ветер - указаны скорость ветра в м/с - средняя за 10 мин, порывы в срок и между сроками (в фигурных скобках) и направление, откуда дует ветер: С - северный, СВ - северо-восточный, В - восточный, ЮВ - юго-восточный, Ю - южный, ЮЗ - юго-западный, З - западный, СЗ - северо-западный.
Видимость - горизонтальная дальность видимости в метрах или километрах. При видимости от 1 до 10 км при отсутствии осадков обычно наблюдается дымка, при ухудшении видимости до 1 км и менее - туман. В сухую погоду видимость может ухудшаться дымом, пылью или мглою.
Явления - указаны атмосферные явления, наблюдавшиеся в срок или в последний час перед сроком; фигурными скобками обозначены явления, наблюдавшиеся между сроками (за 1-3 часа до срока); квадратными скобками обозначены град или гололедные отложения с указанием их диаметра в мм.
Облачность - указаны через наклонную черту общая и нижняя облачность в баллах и высота нижней границы облаков в метрах; квадратными скобками обозначены формы облаков: Ci - перистые, Cs - перисто-слоистые, Cc - перисто-кучевые, Ac - высококучевые, As - высокослоистые, Sc - слоисто-кучевые, Ns - слоисто-дождевые, Cu - кучевые, Cb - кучево-дождевые. Подробнее классификацию облаков см. в Атласе облаков (PDF).
T - Температура воздуха - температура, измеренная на высоте 2 м над землей.
Td - Температура точки росы - температура, при понижении до которой содержащийся в воздухе водяной пар достигнет насыщения.
f - Относительная влажность воздуха - влажноcть воздуха, измеренная на высоте 2 м над землей.
Te - Эффективная температура - температура, которую ощущает одетый по сезону человек в тени. Характеристика душности погоды. При расчете учитывается влияние влажности воздуха и скорости ветра на теплоощущения человека.
Tes - Эффективная температура на солнце - температура, которую ощущает человек, с поправкой на солнечный нагрев. Характеристика знойности погоды. Зависит от высоты солнца над горизонтом, облачности и скорости ветра. Ночью, в пасмурную погоду, а также при ветре 12 м/с и более поправка равна нулю.
P - Атмосферное давление - приведенное к уровню моря атмосферное давление.
Po - Атмосферное давление - измеренное на уровне метеостанции атмосферное давление.
Tmin - Минимальная температура - минимум температуры воздуха на высоте 2 м над землей.
Tmax - Максимальная температура - максимум температуры воздуха на высоте 2 м над землей.
R - Количество осадков - Количество выпавших осадков за период времени, мм. При наведении курсора мыши на число - период времени, за который выпало указанное количество осадков.
R24 - Количество осадков - Количество выпавших осадков за 24 часа, мм.
S - Снежный покров - Высота снежного покрова, см. При наведении курсора мыши на число - состояние снежного покрова и степень покрытия местности в баллах.